Погода в Сюкееве

Россия / Республика Татарстан     55°06′27″N   49°00′55″E
темп.,
°C
ветер,
м/с
пор.,
м/с
влажн.,
%
обл.,
%
осадки,
мм/ч
давл.,
гПа
погр.,
м
7 марта, вс
вс700:00−15з34910 0.0 101221
03:00−16з23940 0.0 101220
06:00−16з339517 0.0 101120
09:00−14зюз33939 0.0 101159
12:00−10юз46891 0.0 1010291
15:00−8ююз58880 0.0 1007217
18:00−8ю7128590 0.0 1005297
21:00−7ю9149395 0.9 1002637
8 марта, пн
пн800:00−6ю81494100 0.9 997593
03:00−5ююз81594100 1.9 994631
06:00−3юз91587100 1.2 991787
09:00−7зюз11187782 1.2 993679
12:00−6зюз10147925 0.0 997785
15:00−6зюз8138113 0.0 1000493
18:00−9зюз56870 0.0 100154
21:00−11ююз338946 0.0 100221
9 марта, вт
вт900:00−9ю2295100 0.2 100222
03:00−11зюз589394 0.7 1002101
06:00−10сз699184 0.1 1004207
09:00−13зсз589242 0.1 1007189
12:00−11зсз458942 0.0 1008329
15:00−10зсз358959 0.0 1010162
18:00−14сз459245 0.0 101027
21:00−15сз579351 0.0 101289
10 марта, ср
ср1000:00−17ссз4595100 0.0 101243
03:00−20сз5595100 0.0 101375
06:00−22сз579663 0.0 1015101
09:00−20ссз589382 0.1 1017276
12:00−20ссз579193 0.0 1018351
15:00−19сз588994 0.0 1019483
18:00−22сз559488 0.0 102173
21:00−25сз459444 0.0 102341
11 марта, чт
чт1100:00−25зсз45940 0.0 102344
03:00−25зсз55950 0.0 102467
06:00−25з579522 0.0 1023119
09:00−21з6109225 0.0 1023293
12:00−15з71089100 0.1 1022516
15:00−12сз71089100 0.3 1022728
18:00−12зсз6108798 0.1 1023183
21:00−13зсз6108896 0.1 1025170